N6RSX Weather Reports


time (UTC)temp
C
wind
direction
speed
KPH
gust
KPH
rain 1hr
cm
rain 24hr
cm
rain mn
cm
humidity
%
barometer
mb
20260508013356 21 156 9.7 19.3 0.00 0.00 0.00 65 1013.9
20260508012849 21 230 9.7 25.7 0.00 0.00 0.00 65 1014.0
20260508011837 22 154 9.7 24.1 0.00 0.00 0.00 64 1013.8
20260508010825 22 205 9.7 17.7 0.00 0.00 0.00 63 1013.9
20260508010319 22 175 9.7 16.1 0.00 0.00 0.00 63 1013.9
20260508005813 22 214 9.7 16.1 0.00 0.00 0.00 63 1013.8
20260508005307 22 188 9.7 17.7 0.00 0.00 0.00 62 1013.8
20260508004300 22 198 9.7 19.3 0.00 0.00 0.00 62 1013.8
20260508003759 22 180 9.7 19.3 0.00 0.00 0.00 62 1013.9
20260508003257 23 207 9.7 17.7 0.00 0.00 0.00 61 1013.9
20260508002255 23 205 8.0 17.7 0.00 0.00 0.00 61 1013.9
20260508001255 23 208 8.0 14.5 0.00 0.00 0.00 60 1013.9
20260508000753 23 188 8.0 16.1 0.00 0.00 0.00 60 1013.8
20260508000253 23 194 8.0 16.1 0.00 0.00 0.00 60 1013.8
20260507235753 23 175 9.7 19.3 0.00 0.00 0.00 59 1013.9
20260507235252 23 168 11.3 19.3 0.00 0.00 0.00 59 1013.9
20260507234751 23 209 9.7 22.5 0.00 0.00 0.00 59 1014.0
20260507234250 24 209 8.0 22.5 0.00 0.00 0.00 57 1013.8
20260507233749 23 167 8.0 17.7 0.00 0.00 0.00 57 1013.8
20260507233249 24 206 8.0 19.3 0.00 0.00 0.00 56 1013.9
20260507232749 23 173 9.7 19.3 0.00 0.00 0.00 57 1013.9
20260507232249 23 171 9.7 17.7 0.00 0.00 0.00 56 1014.0
20260507231749 24 198 9.7 19.3 0.00 0.00 0.00 56 1013.9
20260507231245 24 202 8.0 19.3 0.00 0.00 0.00 56 1014.0
20260507230744 24 230 9.7 19.3 0.00 0.00 0.00 56 1013.9
20260507230243 24 227 9.7 19.3 0.00 0.00 0.00 56 1013.9
20260507225743 23 185 9.7 20.9 0.00 0.00 0.00 56 1013.9
20260507225243 23 203 11.3 20.9 0.00 0.00 0.00 55 1013.9
20260507224742 24 184 9.7 22.5 0.00 0.00 0.00 55 1014.0
20260507224242 24 200 9.7 22.5 0.00 0.00 0.00 55 1014.0
20260507223741 24 189 9.7 19.3 0.00 0.00 0.00 55 1014.0
20260507223242 24 192 9.7 19.3 0.00 0.00 0.00 55 1014.0
20260507222741 24 190 9.7 24.1 0.00 0.00 0.00 54 1013.8
20260507222241 24 208 9.7 24.1 0.00 0.00 0.00 55 1014.0
20260507221741 24 233 9.7 22.5 0.00 0.00 0.00 55 1013.9
20260507221241 24 208 9.7 19.3 0.00 0.00 0.00 54 1014.0
20260507220741 24 215 8.0 17.7 0.00 0.00 0.00 54 1014.1
20260507220241 24 168 8.0 17.7 0.00 0.00 0.00 54 1014.3
20260507215735 24 180 8.0 17.7 0.00 0.00 0.00 54 1014.4
20260507215236 24 218 9.7 19.3 0.00 0.00 0.00 56 1014.4
20260507214233 24 208 8.0 19.3 0.00 0.00 0.00 55 1014.5
20260507213233 24 205 9.7 24.1 0.00 0.00 0.00 55 1014.8
20260507212734 24 209 9.7 19.3 0.00 0.00 0.00 55 1014.8
20260507212233 24 190 9.7 19.3 0.00 0.00 0.00 56 1014.8
20260507211735 23 197 9.7 16.1 0.00 0.00 0.00 56 1014.9
20260507211233 24 203 11.3 20.9 0.00 0.00 0.00 55 1014.9
20260507210733 23 207 11.3 20.9 0.00 0.00 0.00 55 1014.9
20260507210233 24 196 9.7 17.7 0.00 0.00 0.00 55 1014.9
20260507205733 24 262 9.7 17.7 0.00 0.00 0.00 56 1014.9
20260507205233 24 185 9.7 17.7 0.00 0.00 0.00 57 1015.1
20260507204733 24 175 9.7 19.3 0.00 0.00 0.00 57 1015.0
20260507204232 24 204 9.7 24.1 0.00 0.00 0.00 58 1015.0
20260507203733 24 194 9.7 24.1 0.00 0.00 0.00 58 1015.2
20260507202729 23 210 8.0 17.7 0.00 0.00 0.00 59 1015.1
20260507202228 23 186 9.7 20.9 0.00 0.00 0.00 59 1015.0
20260507201730 23 201 9.7 20.9 0.00 0.00 0.00 59 1015.1
20260507201228 24 153 8.0 19.3 0.00 0.00 0.00 59 1015.2
20260507200229 24 153 8.0 16.1 0.00 0.00 0.00 57 1015.3
20260507195728 24 212 6.4 19.3 0.00 0.00 0.00 59 1015.3
20260507195229 24 190 8.0 19.3 0.00 0.00 0.00 58 1015.3
20260507194729 24 228 8.0 19.3 0.00 0.00 0.00 58 1015.3
20260507194227 24 243 6.4 16.1 0.00 0.00 0.00 58 1015.3
20260507193723 23 146 6.4 14.5 0.00 0.00 0.00 56 1015.3
20260507193215 24 201 6.4 14.5 0.00 0.00 0.00 57 1015.3
20260507192205 23 147 4.8 16.1 0.00 0.00 0.00 57 1015.4
20260507191658 23 215 3.2 16.1 0.00 0.00 0.00 57 1015.5
20260507191152 23 178 4.8 16.1 0.00 0.00 0.00 59 1015.6
20260507190646 23 213 4.8 16.1 0.00 0.00 0.00 58 1015.7
20260507190143 23 170 4.8 14.5 0.00 0.00 0.00 58 1015.9
20260507185643 23 144 4.8 14.5 0.00 0.00 0.00 57 1016.0
20260507185143 22 294 4.8 12.9 0.00 0.00 0.00 60 1016.0
20260507184642 23 190 4.8 12.9 0.00 0.00 0.00 58 1016.1
20260507184143 23 219 3.2 12.9 0.00 0.00 0.00 60 1016.2
20260507183644 22 278 3.2 11.3 0.00 0.00 0.00 60 1016.1
20260507183142 22 189 3.2 11.3 0.00 0.00 0.00 61 1016.2
20260507182142 22 130 3.2 11.3 0.00 0.00 0.00 61 1016.3
20260507181642 22 175 3.2 11.3 0.00 0.00 0.00 62 1016.3
20260507180642 21 234 3.2 11.3 0.00 0.00 0.00 64 1016.4
20260507175643 21 159 4.8 11.3 0.00 0.00 0.00 64 1016.4
20260507175142 21 216 6.4 16.1 0.00 0.00 0.00 64 1016.5
20260507174642 21 166 6.4 16.1 0.00 0.00 0.00 65 1016.6
20260507174142 21 159 3.2 9.7 0.00 0.00 0.00 66 1016.4
20260507173636 20 150 3.2 9.7 0.00 0.00 0.00 66 1016.5
20260507173131 20 150 3.2 9.7 0.00 0.00 0.00 67 1016.5
20260507172624 20 198 3.2 11.3 0.00 0.00 0.00 68 1016.4
20260507171613 20 163 3.2 8.0 0.00 0.00 0.00 68 1016.5
20260507171106 20 184 4.8 9.7 0.00 0.00 0.00 68 1016.6
20260507170054 20 176 1.6 8.0 0.00 0.00 0.00 70 1016.5
20260507165548 19 174 3.2 9.7 0.00 0.00 0.00 70 1016.6
20260507165042 18 176 3.2 9.7 0.00 0.00 0.00 70 1016.7
20260507164030 18 173 3.2 11.3 0.00 0.00 0.00 71 1016.6
20260507163525 18 103 3.2 11.3 0.00 0.00 0.00 71 1016.7
20260507163018 18 22 3.2 8.0 0.00 0.00 0.00 73 1016.7
20260507162512 18 221 3.2 9.7 0.00 0.00 0.00 73 1016.7
20260507162006 18 217 3.2 9.7 0.00 0.00 0.00 73 1016.7
20260507161500 18 224 3.2 9.7 0.00 0.00 0.00 74 1016.7
20260507160955 18 201 1.6 6.4 0.00 0.00 0.00 74 1016.7
20260507160448 18 107 1.6 6.4 0.00 0.00 0.00 74 1016.8
20260507155942 17 225 1.6 6.4 0.00 0.00 0.00 74 1016.8
20260507155436 17 173 0.0 4.8 0.00 0.00 0.00 75 1016.8
20260507154424 17 209 1.6 6.4 0.00 0.00 0.00 74 1016.9
20260507153412 17 89 1.6 4.8 0.00 0.00 0.00 77 1016.9
20260507152906 16 89 1.6 4.8 0.00 0.00 0.00 78 1017.0
20260507152359 16 159 1.6 6.4 0.00 0.00 0.00 79 1016.9
20260507151853 16 201 1.6 6.4 0.00 0.00 0.00 79 1016.9
20260507151348 16 146 1.6 4.8 0.00 0.00 0.00 78 1016.9
20260507150848 16 160 1.6 4.8 0.00 0.00 0.00 78 1016.9
20260507150348 16 160 1.6 4.8 0.00 0.00 0.00 77 1016.9
20260507145848 16 158 1.6 8.0 0.00 0.00 0.00 77 1016.9
20260507145348 16 167 0.0 8.0 0.00 0.00 0.00 77 1016.9
20260507144848 16 155 0.0 0.0 0.00 0.00 0.00 77 1016.9
20260507144346 16 137 0.0 0.0 0.00 0.00 0.00 78 1016.9
20260507143342 15 21 0.0 0.0 0.00 0.00 0.00 80 1016.8
20260507142841 15 21 0.0 0.0 0.00 0.00 0.00 82 1016.8
20260507142339 14 21 0.0 0.0 0.00 0.00 0.00 82 1016.7
20260507141837 13 21 0.0 0.0 0.00 0.00 0.00 83 1016.6
20260507141335 13 21 0.0 0.0 0.00 0.00 0.00 84 1016.5
20260507140833 13 21 0.0 0.0 0.00 0.00 0.00 85 1016.5
20260507140331 12 21 0.0 1.6 0.00 0.00 0.00 86 1016.5
20260507135326 12 348 1.6 3.2 0.00 0.00 0.00 87 1016.4
20260507134826 12 348 1.6 3.2 0.00 0.00 0.00 87 1016.4
20260507134326 11 28 1.6 3.2 0.00 0.00 0.00 88 1016.4
20260507133826 11 333 0.0 3.2 0.00 0.00 0.00 88 1016.3
20260507133326 11 333 0.0 0.0 0.00 0.00 0.00 89 1016.2
20260507132315 11 333 0.0 0.0 0.00 0.00 0.00 88 1016.2
20260507130756 11 335 0.0 3.2 0.00 0.00 0.00 88 1015.9
20260507130249 11 355 0.0 0.0 0.00 0.00 0.00 88 1015.9
20260507125238 11 355 0.0 1.6 0.00 0.00 0.00 88 1015.8
20260507124732 11 355 0.0 4.8 0.00 0.00 0.00 88 1015.9
20260507124226 11 335 1.6 6.4 0.00 0.00 0.00 88 1015.9
20260507123721 11 340 1.6 6.4 0.00 0.00 0.00 88 1015.9
20260507123216 11 339 0.0 1.6 0.00 0.00 0.00 87 1015.9
20260507122711 11 348 0.0 0.0 0.00 0.00 0.00 87 1015.9
20260507122211 11 348 0.0 0.0 0.00 0.00 0.00 87 1016.0
20260507121207 11 348 0.0 0.0 0.00 0.00 0.00 87 1016.0
20260507120706 11 348 0.0 0.0 0.00 0.00 0.00 87 1016.1
20260507115706 11 342 0.0 0.0 0.00 0.00 0.00 87 1016.1
20260507115205 11 342 0.0 0.0 0.00 0.00 0.00 87 1016.1
20260507114705 11 347 0.0 0.0 0.00 0.00 0.00 86 1016.1
20260507114203 11 347 0.0 0.0 0.00 0.00 0.00 86 1016.0
20260507113704 11 355 0.0 0.0 0.00 0.00 0.00 86 1016.1
20260507113204 11 355 0.0 0.0 0.00 0.00 0.00 86 1016.1
20260507112704 11 355 0.0 3.2 0.00 0.00 0.00 85 1016.1
20260507112202 11 355 0.0 3.2 0.00 0.00 0.00 86 1016.1
20260507111700 11 5 0.0 0.0 0.00 0.00 0.00 85 1016.1
20260507111201 11 5 0.0 0.0 0.00 0.00 0.00 85 1016.2
20260507110201 11 5 0.0 0.0 0.00 0.00 0.00 85 1016.2
20260507105659 11 5 0.0 0.0 0.00 0.00 0.00 85 1016.2
20260507105201 11 5 0.0 0.0 0.00 0.00 0.00 85 1016.2
20260507104700 12 5 0.0 0.0 0.00 0.00 0.00 85 1016.2
20260507104202 12 5 0.0 4.8 0.00 0.00 0.00 85 1016.3
20260507103701 12 5 1.6 4.8 0.00 0.00 0.00 85 1016.2
20260507103201 12 355 1.6 3.2 0.00 0.00 0.00 85 1016.3
20260507102701 12 335 1.6 4.8 0.00 0.00 0.00 85 1016.4
20260507102202 12 327 1.6 4.8 0.00 0.00 0.00 85 1016.4
20260507101700 12 347 1.6 4.8 0.00 0.00 0.00 85 1016.4
20260507101202 12 317 1.6 4.8 0.00 0.00 0.00 85 1016.3
20260507100201 12 328 1.6 4.8 0.00 0.00 0.00 85 1016.4
20260507095700 12 344 0.0 3.2 0.00 0.00 0.00 85 1016.6
20260507094657 12 355 1.6 4.8 0.00 0.00 0.00 85 1016.5
20260507094157 12 0 3.2 4.8 0.00 0.00 0.00 85 1016.6
20260507093656 12 0 1.6 4.8 0.00 0.00 0.00 85 1016.6
20260507093156 12 11 0.0 4.8 0.00 0.00 0.00 85 1016.8
20260507092656 12 350 0.0 3.2 0.00 0.00 0.00 85 1016.8
20260507092157 12 5 0.0 3.2 0.00 0.00 0.00 85 1016.8
20260507091655 12 0 0.0 3.2 0.00 0.00 0.00 85 1016.9
20260507091154 12 338 0.0 3.2 0.00 0.00 0.00 85 1017.0
20260507090653 12 355 0.0 0.0 0.00 0.00 0.00 85 1017.1
20260507090153 12 355 0.0 0.0 0.00 0.00 0.00 85 1017.0
20260507085652 12 355 0.0 0.0 0.00 0.00 0.00 85 1017.0
20260507085150 12 355 0.0 0.0 0.00 0.00 0.00 85 1017.1
20260507084651 12 355 0.0 0.0 0.00 0.00 0.00 84 1017.2
20260507084148 12 355 0.0 0.0 0.00 0.00 0.00 84 1017.2
20260507083647 12 340 0.0 0.0 0.00 0.00 0.00 84 1017.2
20260507083141 12 340 0.0 0.0 0.00 0.00 0.00 84 1017.3
20260507082634 12 340 0.0 0.0 0.00 0.00 0.00 84 1017.3
20260507082130 12 340 0.0 0.0 0.00 0.00 0.00 84 1017.3
20260507081623 12 340 0.0 0.0 0.00 0.00 0.00 84 1017.2
20260507080105 13 338 1.6 4.8 0.00 0.00 0.00 84 1017.4
20260507075559 13 347 0.0 4.8 0.00 0.00 0.00 84 1017.3
20260507075052 13 340 0.0 4.8 0.00 0.00 0.00 84 1017.3
20260507074546 13 340 0.0 4.8 0.00 0.00 0.00 84 1017.3
20260507073535 13 355 0.0 3.2 0.00 0.00 0.00 83 1017.5
20260507073030 13 0 0.0 3.2 0.00 0.00 0.00 83 1017.4
20260507072524 13 350 1.6 4.8 0.00 0.00 0.00 83 1017.5
20260507071004 13 0 0.0 1.6 0.00 0.00 0.00 82 1017.4
20260507065953 13 332 0.0 3.2 0.00 0.00 0.00 81 1017.5
20260507064941 13 355 0.0 0.0 0.00 0.00 0.00 80 1017.6
20260507063929 13 355 0.0 3.2 0.00 0.00 0.00 80 1017.7
20260507063424 13 345 0.0 0.0 0.00 0.00 0.00 80 1017.7
20260507062419 14 355 0.0 0.0 0.00 0.00 0.00 79 1017.6
20260507061917 14 355 0.0 0.0 0.00 0.00 0.00 79 1017.8
20260507061417 14 355 0.0 0.0 0.00 0.00 0.00 78 1017.6
20260507060417 15 346 0.0 3.2 0.00 0.00 0.00 77 1017.8
20260507055919 15 19 1.6 4.8 0.00 0.00 0.00 76 1017.6
20260507055419 15 37 0.0 4.8 0.00 0.00 0.00 75 1017.8
20260507054415 16 355 1.6 3.2 0.00 0.00 0.00 73 1017.7
20260507053912 16 33 0.0 3.2 0.00 0.00 0.00 72 1017.9
20260507053410 16 13 0.0 3.2 0.00 0.00 0.00 72 1017.7
20260507052907 16 31 0.0 6.4 0.00 0.00 0.00 71 1017.7
20260507052408 17 199 1.6 6.4 0.00 0.00 0.00 71 1017.7
20260507051907 17 222 1.6 4.8 0.00 0.00 0.00 71 1017.7
20260507051405 17 225 1.6 4.8 0.00 0.00 0.00 71 1017.8
20260507050904 17 236 1.6 4.8 0.00 0.00 0.00 70 1017.8
20260507050404 17 232 1.6 3.2 0.00 0.00 0.00 70 1017.8
20260507045904 17 225 1.6 4.8 0.00 0.00 0.00 69 1017.7
20260507045356 17 207 0.0 4.8 0.00 0.00 0.00 69 1017.7
20260507044857 17 214 1.6 4.8 0.00 0.00 0.00 69 1017.7
20260507043837 17 210 1.6 6.4 0.00 0.00 0.00 68 1017.7
20260507043332 17 189 1.6 6.4 0.00 0.00 0.00 68 1017.6
20260507042825 17 202 3.2 8.0 0.00 0.00 0.00 68 1017.7
20260507042319 17 182 4.8 8.0 0.00 0.00 0.00 67 1017.6
20260507041813 17 219 3.2 8.0 0.00 0.00 0.00 67 1017.6
20260507041307 17 220 3.2 11.3 0.00 0.00 0.00 67 1017.6
20260507040801 18 257 3.2 11.3 0.00 0.00 0.00 67 1017.6
20260507035244 18 221 4.8 11.3 0.00 0.00 0.00 66 1017.3
20260507034737 18 232 3.2 11.3 0.00 0.00 0.00 66 1017.3
20260507034231 18 221 3.2 12.9 0.00 0.00 0.00 66 1017.2
20260507033725 18 219 6.4 12.9 0.00 0.00 0.00 66 1017.1
20260507033219 18 198 4.8 11.3 0.00 0.00 0.00 65 1017.0
20260507032714 18 217 4.8 11.3 0.00 0.00 0.00 65 1017.1
20260507032206 18 221 3.2 14.5 0.00 0.00 0.00 64 1017.0
20260507031702 18 244 4.8 14.5 0.00 0.00 0.00 63 1016.9
20260507031155 19 200 4.8 12.9 0.00 0.00 0.00 63 1016.8
20260507030650 19 215 4.8 12.9 0.00 0.00 0.00 62 1016.8
20260507030143 19 228 4.8 12.9 0.00 0.00 0.00 62 1016.8
20260507025637 19 232 4.8 12.9 0.00 0.00 0.00 62 1016.7
20260507025131 19 242 6.4 12.9 0.00 0.00 0.00 62 1016.7
20260507024625 19 229 4.8 14.5 0.00 0.00 0.00 62 1016.6
20260507024119 20 200 6.4 14.5 0.00 0.00 0.00 61 1016.7
20260507023613 20 231 6.4 16.1 0.00 0.00 0.00 61 1016.5
20260507023107 20 231 6.4 16.1 0.00 0.00 0.00 61 1016.4
20260507022056 20 217 4.8 11.3 0.00 0.00 0.00 60 1016.2
20260507021549 20 215 4.8 11.3 0.00 0.00 0.00 60 1016.2
20260507020031 21 209 6.4 12.9 0.00 0.00 0.00 60 1015.9
20260507015525 21 173 8.0 14.5 0.00 0.00 0.00 60 1015.9
20260507015019 21 167 8.0 14.5 0.00 0.00 0.00 59 1015.9
20260507014007 21 165 8.0 14.5 0.00 0.00 0.00 58 1015.9